Time,TemperatureF,DewpointF,PressureIn,WindDirection,WindDirectionDegrees,WindSpeedMPH,WindSpeedGustMPH,Humidity,HourlyPrecipIn,Conditions,Clouds,dailyrainin,SoftwareType,DateUTC
2013-07-07 00:00:00,85.3,67.8,30.10,WNW,294,5.8,5.8,56,0.00,,,0.00,VWS V14.01,2013-07-07 04:00:00,
2013-07-07 00:01:00,85.3,67.8,30.10,WNW,293,0.0,5.8,56,0.00,,,0.00,VWS V14.01,2013-07-07 04:01:00,
2013-07-07 00:02:00,85.3,67.8,30.10,WNW,293,0.0,5.8,56,0.00,,,0.00,VWS V14.01,2013-07-07 04:02:00,
2013-07-07 00:05:00,85.3,67.8,30.10,West,277,0.0,5.8,56,0.00,,,0.00,VWS V14.01,2013-07-07 04:05:00,
2013-07-07 00:07:00,85.3,67.8,30.10,West,272,2.7,3.6,56,0.00,,,0.00,VWS V14.01,2013-07-07 04:07:00,
2013-07-07 00:10:00,85.3,67.8,30.07,West,272,0.0,3.6,56,0.00,,,0.00,VWS V14.01,2013-07-07 04:10:00,
2013-07-07 00:12:00,85.3,67.8,30.07,West,272,0.0,0.0,56,0.00,,,0.00,VWS V14.01,2013-07-07 04:12:00,
2013-07-07 00:15:00,85.3,67.8,30.07,West,272,0.0,0.0,56,0.00,,,0.00,VWS V14.01,2013-07-07 04:15:00,
2013-07-07 00:17:00,85.3,67.8,30.07,West,280,0.0,5.4,56,0.00,,,0.00,VWS V14.01,2013-07-07 04:17:00,
2013-07-07 00:20:00,85.3,67.8,30.07,WSW,244,0.0,5.4,56,0.00,,,0.00,VWS V14.01,2013-07-07 04:20:00,
2013-07-07 00:22:00,85.3,67.8,30.07,West,275,0.0,4.0,56,0.00,,,0.00,VWS V14.01,2013-07-07 04:22:00,
2013-07-07 00:25:00,85.3,67.8,30.07,West,262,0.0,4.0,56,0.00,,,0.00,VWS V14.01,2013-07-07 04:25:00,
2013-07-07 00:27:00,85.3,67.8,30.10,West,270,0.0,4.0,56,0.00,,,0.00,VWS V14.01,2013-07-07 04:27:00,
2013-07-07 00:30:00,85.3,67.8,30.10,WSW,244,0.0,4.0,56,0.00,,,0.00,VWS V14.01,2013-07-07 04:30:00,
2013-07-07 00:32:00,85.3,67.8,30.10,WNW,294,3.1,4.9,56,0.00,,,0.00,VWS V14.01,2013-07-07 04:32:00,
2013-07-07 00:35:00,85.3,67.8,30.10,WSW,256,2.2,4.9,56,0.00,,,0.00,VWS V14.01,2013-07-07 04:35:00,
2013-07-07 00:37:00,85.3,67.8,30.10,West,270,2.7,2.7,56,0.00,,,0.00,VWS V14.01,2013-07-07 04:37:00,
2013-07-07 00:40:00,85.3,67.8,30.10,West,260,0.0,6.3,56,0.00,,,0.00,VWS V14.01,2013-07-07 04:40:00,
2013-07-07 00:42:00,85.3,67.8,30.10,West,260,3.6,3.6,56,0.00,,,0.00,VWS V14.01,2013-07-07 04:42:00,
2013-07-07 00:45:00,85.3,67.8,30.10,WSW,258,0.0,4.9,56,0.00,,,0.00,VWS V14.01,2013-07-07 04:45:00,
2013-07-07 00:47:00,85.3,67.8,30.10,West,268,2.2,6.3,56,0.00,,,0.00,VWS V14.01,2013-07-07 04:47:00,
2013-07-07 00:50:00,85.3,67.8,30.10,West,268,0.0,6.3,56,0.00,,,0.00,VWS V14.01,2013-07-07 04:50:00,
2013-07-07 00:52:00,85.3,67.8,30.10,West,268,0.0,0.0,56,0.00,,,0.00,VWS V14.01,2013-07-07 04:52:00,
2013-07-07 00:55:00,85.3,67.8,30.07,West,268,0.0,3.6,56,0.00,,,0.00,VWS V14.01,2013-07-07 04:55:00,
2013-07-07 00:57:00,85.3,67.8,30.07,West,280,0.0,3.6,56,0.00,,,0.00,VWS V14.01,2013-07-07 04:57:00,
2013-07-07 01:00:00,85.3,67.8,30.07,WSW,245,2.7,3.6,56,0.00,,,0.00,VWS V14.01,2013-07-07 05:00:00,
2013-07-07 01:02:00,85.3,67.8,30.07,WNW,284,0.0,3.1,56,0.00,,,0.00,VWS V14.01,2013-07-07 05:02:00,
2013-07-07 01:05:00,85.3,67.8,30.07,WNW,284,0.0,3.1,56,0.00,,,0.00,VWS V14.01,2013-07-07 05:05:00,
2013-07-07 01:07:00,85.3,67.8,30.07,WNW,284,0.0,0.0,56,0.00,,,0.00,VWS V14.01,2013-07-07 05:07:00,
2013-07-07 01:10:00,85.3,67.8,30.07,WNW,286,0.0,3.6,56,0.00,,,0.00,VWS V14.01,2013-07-07 05:10:00,
2013-07-07 01:12:00,85.3,67.8,30.07,West,262,3.1,3.1,56,0.00,,,0.00,VWS V14.01,2013-07-07 05:12:00,
2013-07-07 01:15:00,85.3,67.8,30.07,West,262,0.0,3.1,56,0.00,,,0.00,VWS V14.01,2013-07-07 05:15:00,
2013-07-07 01:17:00,85.3,67.8,30.07,West,262,0.0,0.0,56,0.00,,,0.00,VWS V14.01,2013-07-07 05:17:00,
2013-07-07 01:20:00,85.3,67.8,30.07,WNW,282,0.0,3.1,56,0.00,,,0.00,VWS V14.01,2013-07-07 05:20:00,
2013-07-07 01:22:00,85.3,67.8,30.07,WNW,282,0.0,2.2,56,0.00,,,0.00,VWS V14.01,2013-07-07 05:22:00,
2013-07-07 01:25:00,85.3,67.8,30.07,West,267,0.0,3.6,56,0.00,,,0.00,VWS V14.01,2013-07-07 05:25:00,
2013-07-07 01:27:00,85.3,67.8,30.07,West,263,0.0,5.8,56,0.00,,,0.00,VWS V14.01,2013-07-07 05:27:00,
2013-07-07 01:30:00,85.3,67.8,30.07,West,271,2.2,5.8,56,0.00,,,0.00,VWS V14.01,2013-07-07 05:30:00,
2013-07-07 01:32:00,85.3,67.8,30.07,West,277,0.0,3.1,56,0.00,,,0.00,VWS V14.01,2013-07-07 05:32:00,
2013-07-07 01:35:00,85.3,67.8,30.07,West,277,0.0,3.1,56,0.00,,,0.00,VWS V14.01,2013-07-07 05:35:00,
2013-07-07 01:37:00,85.3,67.8,30.07,West,277,0.0,2.7,56,0.00,,,0.00,VWS V14.01,2013-07-07 05:37:00,
2013-07-07 01:40:00,85.3,67.8,30.07,WSW,257,3.6,6.3,56,0.00,,,0.00,VWS V14.01,2013-07-07 05:40:00,
2013-07-07 01:42:00,85.3,67.8,30.07,West,276,0.0,7.2,56,0.00,,,0.00,VWS V14.01,2013-07-07 05:42:00,
2013-07-07 01:45:00,85.3,67.8,30.07,West,259,0.0,7.2,56,0.00,,,0.00,VWS V14.01,2013-07-07 05:45:00,
2013-07-07 01:47:00,85.3,67.8,30.07,West,268,2.2,3.6,56,0.00,,,0.00,VWS V14.01,2013-07-07 05:47:00,
2013-07-07 01:50:00,85.3,67.8,30.07,West,268,0.0,3.6,56,0.00,,,0.00,VWS V14.01,2013-07-07 05:50:00,
2013-07-07 01:52:00,85.3,67.8,30.07,WNW,285,0.0,3.6,56,0.00,,,0.00,VWS V14.01,2013-07-07 05:52:00,
2013-07-07 01:55:00,85.3,67.8,30.07,WSW,255,2.2,3.6,56,0.00,,,0.00,VWS V14.01,2013-07-07 05:55:00,
2013-07-07 01:57:00,85.3,67.8,30.07,WSW,255,0.0,2.2,56,0.00,,,0.00,VWS V14.01,2013-07-07 05:57:00,
2013-07-07 02:00:00,85.3,67.8,30.07,WSW,256,3.1,3.1,56,0.00,,,0.00,VWS V14.01,2013-07-07 06:00:00,
2013-07-07 02:02:00,85.3,67.8,30.07,West,265,5.4,5.4,56,0.00,,,0.00,VWS V14.01,2013-07-07 06:02:00,
2013-07-07 02:05:00,85.3,67.8,30.07,West,275,0.0,6.3,56,0.00,,,0.00,VWS V14.01,2013-07-07 06:05:00,
2013-07-07 02:07:00,85.3,67.8,30.07,West,278,0.0,4.9,56,0.00,,,0.00,VWS V14.01,2013-07-07 06:07:00,
2013-07-07 02:10:00,85.3,67.8,30.07,WNW,285,0.0,4.9,56,0.00,,,0.00,VWS V14.01,2013-07-07 06:10:00,
2013-07-07 02:12:00,85.3,67.8,30.07,WNW,285,0.0,2.7,56,0.00,,,0.00,VWS V14.01,2013-07-07 06:12:00,
2013-07-07 02:15:00,85.3,67.8,30.07,WNW,287,0.0,2.7,56,0.00,,,0.00,VWS V14.01,2013-07-07 06:15:00,
2013-07-07 02:17:00,85.3,67.8,30.07,West,280,0.0,4.0,56,0.00,,,0.00,VWS V14.01,2013-07-07 06:17:00,
2013-07-07 02:20:00,85.3,67.8,30.07,West,276,0.0,4.0,56,0.00,,,0.00,VWS V14.01,2013-07-07 06:20:00,
2013-07-07 02:22:00,85.3,67.8,30.07,West,276,0.0,3.1,56,0.00,,,0.00,VWS V14.01,2013-07-07 06:22:00,
2013-07-07 02:25:00,85.3,67.8,30.07,West,279,0.0,3.1,56,0.00,,,0.00,VWS V14.01,2013-07-07 06:25:00,
2013-07-07 02:27:00,85.3,67.8,30.07,West,278,0.0,0.0,56,0.00,,,0.00,VWS V14.01,2013-07-07 06:27:00,
2013-07-07 02:30:00,85.3,67.8,30.07,WNW,282,0.0,3.6,56,0.00,,,0.00,VWS V14.01,2013-07-07 06:30:00,
2013-07-07 02:32:00,85.3,67.8,30.07,West,271,0.0,3.6,56,0.00,,,0.00,VWS V14.01,2013-07-07 06:32:00,
2013-07-07 02:35:00,85.3,67.8,30.07,West,271,0.0,3.6,56,0.00,,,0.00,VWS V14.01,2013-07-07 06:35:00,
2013-07-07 02:38:00,85.3,67.8,30.07,West,271,0.0,0.0,56,0.00,,,0.00,VWS V14.01,2013-07-07 06:38:00,
2013-07-07 02:40:00,85.3,67.8,30.07,West,271,0.0,0.0,56,0.00,,,0.00,VWS V14.01,2013-07-07 06:40:00,
2013-07-07 02:43:00,85.3,67.8,30.07,West,271,0.0,0.0,56,0.00,,,0.00,VWS V14.01,2013-07-07 06:43:00,
2013-07-07 02:45:00,85.3,67.8,30.07,West,271,0.0,3.1,56,0.00,,,0.00,VWS V14.01,2013-07-07 06:45:00,
2013-07-07 02:48:00,85.3,67.8,30.07,West,271,0.0,2.7,56,0.00,,,0.00,VWS V14.01,2013-07-07 06:48:00,
2013-07-07 02:50:00,85.3,67.8,30.07,West,271,0.0,2.7,56,0.00,,,0.00,VWS V14.01,2013-07-07 06:50:00,
2013-07-07 02:53:00,85.3,67.8,30.07,West,271,0.0,0.0,56,0.00,,,0.00,VWS V14.01,2013-07-07 06:53:00,
2013-07-07 02:55:00,85.3,67.8,30.07,West,271,0.0,0.0,56,0.00,,,0.00,VWS V14.01,2013-07-07 06:55:00,
2013-07-07 02:58:00,85.3,67.8,30.07,West,271,0.0,0.0,56,0.00,,,0.00,VWS V14.01,2013-07-07 06:58:00,
2013-07-07 03:00:00,85.3,67.8,30.07,West,271,0.0,4.0,56,0.00,,,0.00,VWS V14.01,2013-07-07 07:00:00,
2013-07-07 03:03:00,85.3,67.8,30.07,West,276,2.2,3.6,56,0.00,,,0.00,VWS V14.01,2013-07-07 07:03:00,
2013-07-07 03:05:00,85.3,67.8,30.07,West,276,2.7,3.6,56,0.00,,,0.00,VWS V14.01,2013-07-07 07:05:00,
2013-07-07 03:08:00,85.3,67.8,30.07,SW,230,2.2,3.6,56,0.00,,,0.00,VWS V14.01,2013-07-07 07:08:00,
2013-07-07 03:10:00,85.3,67.8,30.07,SW,230,0.0,3.6,56,0.00,,,0.00,VWS V14.01,2013-07-07 07:10:00,
2013-07-07 03:13:00,85.3,67.8,30.07,WSW,239,3.1,4.0,56,0.00,,,0.00,VWS V14.01,2013-07-07 07:13:00,
2013-07-07 03:15:00,85.3,67.8,30.07,WSW,249,0.0,4.0,56,0.00,,,0.00,VWS V14.01,2013-07-07 07:15:00,
2013-07-07 03:18:00,85.3,67.8,30.07,WSW,254,0.0,4.0,56,0.00,,,0.00,VWS V14.01,2013-07-07 07:18:00,
2013-07-07 03:20:00,85.3,67.8,30.07,WSW,255,2.7,4.0,56,0.00,,,0.00,VWS V14.01,2013-07-07 07:20:00,
2013-07-07 03:23:00,85.3,67.8,30.07,WSW,255,0.0,2.7,56,0.00,,,0.00,VWS V14.01,2013-07-07 07:23:00,
2013-07-07 03:25:00,85.3,67.8,30.07,WSW,241,0.0,4.0,56,0.00,,,0.00,VWS V14.01,2013-07-07 07:25:00,
2013-07-07 03:28:00,85.3,67.8,30.07,West,259,0.0,6.3,56,0.00,,,0.00,VWS V14.01,2013-07-07 07:28:00,
2013-07-07 03:30:00,85.3,67.8,30.07,West,259,0.0,6.3,56,0.00,,,0.00,VWS V14.01,2013-07-07 07:30:00,
2013-07-07 03:33:00,85.3,67.8,30.07,West,262,0.0,3.6,56,0.00,,,0.00,VWS V14.01,2013-07-07 07:33:00,
2013-07-07 03:35:00,85.3,67.8,30.07,West,262,0.0,3.6,56,0.00,,,0.00,VWS V14.01,2013-07-07 07:35:00,
2013-07-07 03:38:00,85.3,67.8,30.07,West,262,0.0,0.0,56,0.00,,,0.00,VWS V14.01,2013-07-07 07:38:00,
2013-07-07 03:40:00,85.3,67.8,30.07,West,259,0.0,0.0,56,0.00,,,0.00,VWS V14.01,2013-07-07 07:40:00,
2013-07-07 03:43:00,85.3,67.8,30.07,West,259,0.0,0.0,56,0.00,,,0.00,VWS V14.01,2013-07-07 07:43:00,
2013-07-07 03:45:00,85.3,67.8,30.07,West,259,0.0,2.2,56,0.00,,,0.00,VWS V14.01,2013-07-07 07:45:00,
2013-07-07 03:48:00,85.3,67.8,30.07,West,259,0.0,0.0,56,0.00,,,0.00,VWS V14.01,2013-07-07 07:48:00,
2013-07-07 03:50:00,85.3,67.8,30.07,West,259,0.0,0.0,56,0.00,,,0.00,VWS V14.01,2013-07-07 07:50:00,
2013-07-07 03:53:00,85.3,67.8,30.07,West,259,2.7,2.7,56,0.00,,,0.00,VWS V14.01,2013-07-07 07:53:00,
2013-07-07 03:55:00,85.3,67.8,30.07,West,260,0.0,2.7,56,0.00,,,0.00,VWS V14.01,2013-07-07 07:55:00,
2013-07-07 03:58:00,85.3,67.8,30.07,West,260,0.0,0.0,56,0.00,,,0.00,VWS V14.01,2013-07-07 07:58:00,
2013-07-07 04:00:00,85.3,67.8,30.07,West,260,0.0,0.0,56,0.00,,,0.00,VWS V14.01,2013-07-07 08:00:00,
2013-07-07 04:03:00,85.3,67.8,30.07,West,259,0.0,0.0,56,0.00,,,0.00,VWS V14.01,2013-07-07 08:03:00,
2013-07-07 04:05:00,85.3,67.8,30.07,West,260,0.0,0.0,56,0.00,,,0.00,VWS V14.01,2013-07-07 08:05:00,
2013-07-07 04:08:00,85.3,67.8,30.07,West,259,0.0,0.0,56,0.00,,,0.00,VWS V14.01,2013-07-07 08:08:00,
2013-07-07 04:10:00,85.3,67.8,30.07,West,259,0.0,0.0,56,0.00,,,0.00,VWS V14.01,2013-07-07 08:10:00,
2013-07-07 04:13:00,85.3,67.8,30.07,West,260,0.0,2.2,56,0.00,,,0.00,VWS V14.01,2013-07-07 08:13:00,
2013-07-07 04:15:00,85.3,67.8,30.07,West,259,0.0,2.2,56,0.00,,,0.00,VWS V14.01,2013-07-07 08:15:00,
2013-07-07 04:18:00,85.3,67.8,30.07,West,259,0.0,0.0,56,0.00,,,0.00,VWS V14.01,2013-07-07 08:18:00,
2013-07-07 04:20:00,85.3,67.8,30.07,WSW,251,0.0,4.9,56,0.00,,,0.00,VWS V14.01,2013-07-07 08:20:00,
2013-07-07 04:23:00,85.3,67.8,30.07,WSW,251,0.0,0.0,56,0.00,,,0.00,VWS V14.01,2013-07-07 08:23:00,
2013-07-07 04:25:00,85.3,67.8,30.07,WSW,251,0.0,0.0,56,0.00,,,0.00,VWS V14.01,2013-07-07 08:25:00,
2013-07-07 04:28:00,85.3,67.8,30.04,WSW,251,0.0,0.0,56,0.00,,,0.00,VWS V14.01,2013-07-07 08:28:00,
2013-07-07 04:30:00,85.3,67.8,30.04,WSW,251,0.0,0.0,56,0.00,,,0.00,VWS V14.01,2013-07-07 08:30:00,
2013-07-07 04:33:00,85.3,67.8,30.04,WSW,251,0.0,0.0,56,0.00,,,0.00,VWS V14.01,2013-07-07 08:33:00,
2013-07-07 04:35:00,85.3,67.8,30.04,WSW,251,0.0,0.0,56,0.00,,,0.00,VWS V14.01,2013-07-07 08:35:00,
2013-07-07 04:38:00,85.3,67.8,30.04,WSW,251,0.0,0.0,56,0.00,,,0.00,VWS V14.01,2013-07-07 08:38:00,
2013-07-07 04:40:00,85.3,67.8,30.04,WSW,251,0.0,0.0,56,0.00,,,0.00,VWS V14.01,2013-07-07 08:40:00,
2013-07-07 04:43:00,85.3,67.8,30.04,WSW,251,0.0,0.0,56,0.00,,,0.00,VWS V14.01,2013-07-07 08:43:00,
2013-07-07 04:45:00,85.3,67.8,30.04,WSW,251,0.0,0.0,56,0.00,,,0.00,VWS V14.01,2013-07-07 08:45:00,
2013-07-07 04:48:00,85.3,67.8,30.04,WSW,251,0.0,0.0,56,0.00,,,0.00,VWS V14.01,2013-07-07 08:48:00,
2013-07-07 04:50:00,85.3,67.8,30.04,WSW,251,0.0,0.0,56,0.00,,,0.00,VWS V14.01,2013-07-07 08:50:00,
2013-07-07 04:53:00,85.3,67.8,30.04,WSW,251,0.0,0.0,56,0.00,,,0.00,VWS V14.01,2013-07-07 08:53:00,
2013-07-07 04:55:00,85.3,67.8,30.04,WSW,251,0.0,0.0,56,0.00,,,0.00,VWS V14.01,2013-07-07 08:55:00,
2013-07-07 04:58:00,85.3,67.8,30.04,WSW,251,0.0,0.0,56,0.00,,,0.00,VWS V14.01,2013-07-07 08:58:00,
2013-07-07 05:00:00,85.3,67.8,30.04,WSW,251,0.0,0.0,56,0.00,,,0.00,VWS V14.01,2013-07-07 09:00:00,
2013-07-07 05:03:00,85.3,67.8,30.04,WSW,251,0.0,0.0,56,0.00,,,0.00,VWS V14.01,2013-07-07 09:03:00,
2013-07-07 05:05:00,85.3,67.8,30.04,WSW,251,0.0,0.0,56,0.00,,,0.00,VWS V14.01,2013-07-07 09:05:00,
2013-07-07 05:08:00,85.3,67.8,30.04,WSW,251,0.0,0.0,56,0.00,,,0.00,VWS V14.01,2013-07-07 09:08:00,
2013-07-07 05:10:00,85.3,67.8,30.04,WSW,251,0.0,0.0,56,0.00,,,0.00,VWS V14.01,2013-07-07 09:10:00,
2013-07-07 05:13:00,85.3,67.8,30.04,West,261,0.0,4.0,56,0.00,,,0.00,VWS V14.01,2013-07-07 09:13:00,
2013-07-07 05:15:00,85.3,67.8,30.04,West,261,0.0,4.0,56,0.00,,,0.00,VWS V14.01,2013-07-07 09:15:00,
2013-07-07 05:18:00,85.3,67.8,30.04,West,261,0.0,0.0,56,0.00,,,0.00,VWS V14.01,2013-07-07 09:18:00,
2013-07-07 05:20:00,85.3,67.8,30.04,West,261,0.0,0.0,56,0.00,,,0.00,VWS V14.01,2013-07-07 09:20:00,
2013-07-07 05:23:00,73.4,68.6,30.04,West,261,0.0,3.1,85,0.00,,,0.00,VWS V14.01,2013-07-07 09:23:00,
2013-07-07 05:25:00,73.4,68.6,30.04,West,261,0.0,3.1,85,0.00,,,0.00,VWS V14.01,2013-07-07 09:25:00,
2013-07-07 05:28:00,73.2,68.8,30.04,West,261,0.0,0.0,86,0.00,,,0.00,VWS V14.01,2013-07-07 09:28:00,
2013-07-07 05:30:00,73.2,68.8,30.04,West,261,0.0,0.0,86,0.00,,,0.00,VWS V14.01,2013-07-07 09:30:00,
2013-07-07 05:33:00,73.2,68.8,30.04,West,261,0.0,0.0,86,0.00,,,0.00,VWS V14.01,2013-07-07 09:33:00,
2013-07-07 05:35:00,73.2,68.8,30.04,West,261,0.0,0.0,86,0.00,,,0.00,VWS V14.01,2013-07-07 09:35:00,
2013-07-07 05:38:00,73.2,68.8,30.04,West,261,0.0,0.0,86,0.00,,,0.00,VWS V14.01,2013-07-07 09:38:00,
2013-07-07 05:40:00,85.3,67.8,30.04,WSW,251,0.0,0.0,56,0.00,,,0.00,VWS V14.01,2013-07-07 09:40:00,
2013-07-07 05:45:00,85.3,67.8,30.04,WSW,251,0.0,0.0,56,0.00,,,0.00,VWS V14.01,2013-07-07 09:45:00,
2013-07-07 05:46:00,74.5,70.0,30.07,West,261,0.0,0.0,86,0.00,,,0.00,VWS V14.01,2013-07-07 09:46:00,
2013-07-07 05:50:00,74.3,69.5,30.07,West,261,0.0,0.0,85,0.00,,,0.00,VWS V14.01,2013-07-07 09:50:00,
2013-07-07 05:51:00,73.9,69.2,30.07,West,261,0.0,0.0,85,0.00,,,0.00,VWS V14.01,2013-07-07 09:51:00,
2013-07-07 05:55:00,73.6,68.4,30.07,West,261,0.0,0.0,84,0.00,,,0.00,VWS V14.01,2013-07-07 09:55:00,
2013-07-07 05:56:00,73.6,68.4,30.07,West,261,0.0,0.0,84,0.00,,,0.00,VWS V14.01,2013-07-07 09:56:00,
2013-07-07 06:00:00,73.4,68.6,30.07,West,261,0.0,0.0,85,0.00,,,0.00,VWS V14.01,2013-07-07 10:00:00,
2013-07-07 06:01:00,73.4,68.6,30.07,West,261,0.0,0.0,85,0.00,,,0.00,VWS V14.01,2013-07-07 10:01:00,
2013-07-07 06:05:00,73.4,68.6,30.07,West,261,0.0,0.0,85,0.00,,,0.00,VWS V14.01,2013-07-07 10:05:00,
2013-07-07 06:06:00,73.2,68.4,30.07,West,261,0.0,0.0,85,0.00,,,0.00,VWS V14.01,2013-07-07 10:06:00,
2013-07-07 06:10:00,73.2,68.4,30.07,West,261,0.0,0.0,85,0.00,,,0.00,VWS V14.01,2013-07-07 10:10:00,
2013-07-07 06:11:00,73.2,68.4,30.04,West,261,0.0,0.0,85,0.00,,,0.00,VWS V14.01,2013-07-07 10:11:00,
2013-07-07 06:15:00,73.2,68.4,30.04,West,261,0.0,0.0,85,0.00,,,0.00,VWS V14.01,2013-07-07 10:15:00,
2013-07-07 06:16:00,73.2,68.4,30.04,West,261,0.0,0.0,85,0.00,,,0.00,VWS V14.01,2013-07-07 10:16:00,
2013-07-07 06:20:00,73.2,68.8,30.04,West,261,0.0,0.0,86,0.00,,,0.00,VWS V14.01,2013-07-07 10:20:00,
2013-07-07 06:21:00,73.2,68.8,30.04,West,261,0.0,0.0,86,0.00,,,0.00,VWS V14.01,2013-07-07 10:21:00,
2013-07-07 06:25:00,73.2,68.8,30.07,West,261,0.0,0.0,86,0.00,,,0.00,VWS V14.01,2013-07-07 10:25:00,
2013-07-07 06:26:00,73.2,68.8,30.07,West,261,0.0,0.0,86,0.00,,,0.00,VWS V14.01,2013-07-07 10:26:00,
2013-07-07 06:30:00,73.2,68.8,30.07,West,261,0.0,0.0,86,0.00,,,0.00,VWS V14.01,2013-07-07 10:30:00,
2013-07-07 06:31:00,73.2,68.8,30.07,West,261,0.0,0.0,86,0.00,,,0.00,VWS V14.01,2013-07-07 10:31:00,
2013-07-07 06:35:00,73.4,69.0,30.07,West,261,0.0,0.0,86,0.00,,,0.00,VWS V14.01,2013-07-07 10:35:00,
2013-07-07 06:36:00,73.4,69.0,30.07,West,261,0.0,0.0,86,0.00,,,0.00,VWS V14.01,2013-07-07 10:36:00,
2013-07-07 06:40:00,73.4,69.0,30.07,West,261,0.0,0.0,86,0.00,,,0.00,VWS V14.01,2013-07-07 10:40:00,
2013-07-07 06:41:00,73.4,69.0,30.07,West,261,0.0,0.0,86,0.00,,,0.00,VWS V14.01,2013-07-07 10:41:00,
2013-07-07 06:45:00,73.6,69.1,30.07,West,261,0.0,0.0,86,0.00,,,0.00,VWS V14.01,2013-07-07 10:45:00,
2013-07-07 06:46:00,73.6,69.1,30.07,West,261,0.0,0.0,86,0.00,,,0.00,VWS V14.01,2013-07-07 10:46:00,
2013-07-07 06:50:00,73.8,69.7,30.07,West,261,0.0,0.0,87,0.00,,,0.00,VWS V14.01,2013-07-07 10:50:00,
2013-07-07 06:51:00,73.8,69.7,30.07,West,261,0.0,0.0,87,0.00,,,0.00,VWS V14.01,2013-07-07 10:51:00,
2013-07-07 06:55:00,73.8,69.7,30.07,West,261,0.0,0.0,87,0.00,,,0.00,VWS V14.01,2013-07-07 10:55:00,
2013-07-07 06:56:00,73.9,69.8,30.07,West,261,0.0,0.0,87,0.00,,,0.00,VWS V14.01,2013-07-07 10:56:00,
2013-07-07 07:00:00,73.9,69.8,30.07,West,261,0.0,0.0,87,0.00,,,0.00,VWS V14.01,2013-07-07 11:00:00,
2013-07-07 07:01:00,73.9,69.8,30.07,West,261,0.0,0.0,87,0.00,,,0.00,VWS V14.01,2013-07-07 11:01:00,
2013-07-07 07:05:00,73.9,69.8,30.07,West,261,0.0,0.0,87,0.00,,,0.00,VWS V14.01,2013-07-07 11:05:00,
2013-07-07 07:06:00,73.9,69.8,30.07,West,261,0.0,0.0,87,0.00,,,0.00,VWS V14.01,2013-07-07 11:06:00,
2013-07-07 07:10:00,74.1,70.0,30.07,West,261,0.0,3.1,87,0.00,,,0.00,VWS V14.01,2013-07-07 11:10:00,
2013-07-07 07:11:00,74.1,70.0,30.07,West,261,0.0,0.0,87,0.00,,,0.00,VWS V14.01,2013-07-07 11:11:00,
2013-07-07 07:15:00,74.1,70.0,30.07,West,261,0.0,0.0,87,0.00,,,0.00,VWS V14.01,2013-07-07 11:15:00,
2013-07-07 07:16:00,74.1,69.7,30.07,West,261,0.0,0.0,86,0.00,,,0.00,VWS V14.01,2013-07-07 11:16:00,
2013-07-07 07:20:00,74.7,70.2,30.07,West,261,0.0,0.0,86,0.00,,,0.00,VWS V14.01,2013-07-07 11:20:00,
2013-07-07 07:21:00,74.8,70.4,30.07,West,261,0.0,0.0,86,0.00,,,0.00,VWS V14.01,2013-07-07 11:21:00,
2013-07-07 07:25:00,75.2,70.7,30.07,West,261,0.0,0.0,86,0.00,,,0.00,VWS V14.01,2013-07-07 11:25:00,
2013-07-07 07:26:00,75.4,70.9,30.07,West,261,0.0,0.0,86,0.00,,,0.00,VWS V14.01,2013-07-07 11:26:00,
2013-07-07 07:30:00,75.9,71.1,30.07,West,261,0.0,0.0,85,0.00,,,0.00,VWS V14.01,2013-07-07 11:30:00,
2013-07-07 07:31:00,76.1,71.3,30.07,West,260,0.0,0.0,85,0.00,,,0.00,VWS V14.01,2013-07-07 11:31:00,
2013-07-07 07:35:00,76.5,71.6,30.07,West,274,0.0,5.4,85,0.00,,,0.00,VWS V14.01,2013-07-07 11:35:00,
2013-07-07 07:36:00,76.5,71.3,30.07,West,274,2.2,3.6,84,0.00,,,0.00,VWS V14.01,2013-07-07 11:36:00,
2013-07-07 07:40:00,76.6,71.1,30.07,West,262,3.1,4.0,83,0.00,,,0.00,VWS V14.01,2013-07-07 11:40:00,
2013-07-07 07:41:00,76.5,70.6,30.07,WSW,258,0.0,5.4,82,0.00,,,0.00,VWS V14.01,2013-07-07 11:41:00,
2013-07-07 07:45:00,76.6,70.7,30.07,WNW,282,2.7,5.8,82,0.00,,,0.00,VWS V14.01,2013-07-07 11:45:00,
2013-07-07 07:46:00,76.6,70.4,30.07,SSW,203,2.7,2.7,81,0.00,,,0.00,VWS V14.01,2013-07-07 11:46:00,
2013-07-07 07:50:00,76.6,70.4,30.07,West,278,0.0,3.1,81,0.00,,,0.00,VWS V14.01,2013-07-07 11:50:00,
2013-07-07 07:51:00,77.0,70.4,30.07,WSW,254,3.1,3.1,80,0.00,,,0.00,VWS V14.01,2013-07-07 11:51:00,
2013-07-07 07:55:00,78.8,71.7,30.07,WSW,258,3.1,4.0,79,0.00,,,0.00,VWS V14.01,2013-07-07 11:55:00,
2013-07-07 07:56:00,80.2,72.8,30.07,WSW,250,2.7,3.1,78,0.00,,,0.00,VWS V14.01,2013-07-07 11:56:00,
2013-07-07 08:00:00,81.7,73.4,30.07,WSW,256,2.2,4.0,76,0.00,,,0.00,VWS V14.01,2013-07-07 12:00:00,
2013-07-07 08:01:00,81.5,72.8,30.07,WSW,256,3.1,3.1,75,0.00,,,0.00,VWS V14.01,2013-07-07 12:01:00,
2013-07-07 08:05:00,81.1,71.7,30.07,SW,234,5.4,5.4,73,0.00,,,0.00,VWS V14.01,2013-07-07 12:05:00,
2013-07-07 08:06:00,81.0,71.5,30.07,WNW,285,5.4,5.4,73,0.00,,,0.00,VWS V14.01,2013-07-07 12:06:00,
2013-07-07 08:10:00,81.1,71.3,30.07,West,261,0.0,5.4,72,0.00,,,0.00,VWS V14.01,2013-07-07 12:10:00,
2013-07-07 08:11:00,80.6,70.8,30.07,West,261,0.0,0.0,72,0.00,,,0.00,VWS V14.01,2013-07-07 12:11:00,
2013-07-07 08:15:00,79.7,69.9,30.07,SSW,202,2.7,3.6,72,0.00,,,0.00,VWS V14.01,2013-07-07 12:15:00,
2013-07-07 08:20:00,74.7,70.2,30.07,West,261,0.0,0.0,86,0.00,,,0.00,VWS V14.01,2013-07-07 12:20:00,
2013-07-07 08:21:00,79.7,69.9,30.07,West,260,0.0,0.0,72,0.00,,,0.00,VWS V14.01,2013-07-07 12:21:00,
2013-07-07 08:25:00,80.1,70.2,30.07,West,260,0.0,2.7,72,0.00,,,0.00,VWS V14.01,2013-07-07 12:25:00,
2013-07-07 08:26:00,80.1,70.2,30.07,West,272,2.7,2.7,72,0.00,,,0.00,VWS V14.01,2013-07-07 12:26:00,
2013-07-07 08:30:00,81.1,70.8,30.07,WSW,240,2.7,4.9,71,0.00,,,0.00,VWS V14.01,2013-07-07 12:30:00,
2013-07-07 08:34:00,80.8,70.1,30.07,SW,217,0.0,0.0,70,0.00,,,0.00,VWS V14.01,2013-07-07 12:34:00,
2013-07-07 08:35:00,80.8,70.1,30.07,SW,217,0.0,0.0,70,0.00,,,0.00,VWS V14.01,2013-07-07 12:35:00,
2013-07-07 08:39:00,80.6,69.9,30.07,WNW,283,0.0,6.7,70,0.00,,,0.00,VWS V14.01,2013-07-07 12:39:00,
2013-07-07 08:40:00,80.6,69.9,30.07,WNW,283,0.0,6.7,70,0.00,,,0.00,VWS V14.01,2013-07-07 12:40:00,
2013-07-07 08:44:00,79.9,69.2,30.07,SSW,212,2.7,5.8,70,0.00,,,0.00,VWS V14.01,2013-07-07 12:44:00,
2013-07-07 08:45:00,79.9,69.2,30.07,SW,233,2.2,5.8,70,0.00,,,0.00,VWS V14.01,2013-07-07 12:45:00,
2013-07-07 08:49:00,79.7,69.1,30.07,WNW,291,0.0,5.4,70,0.00,,,0.00,VWS V14.01,2013-07-07 12:49:00,
2013-07-07 08:50:00,79.7,69.1,30.07,WNW,291,0.0,5.4,70,0.00,,,0.00,VWS V14.01,2013-07-07 12:50:00,
2013-07-07 08:54:00,79.7,69.1,30.07,SW,221,0.0,5.4,70,0.00,,,0.00,VWS V14.01,2013-07-07 12:54:00,
2013-07-07 08:55:00,79.7,69.1,30.07,SW,221,0.0,5.4,70,0.00,,,0.00,VWS V14.01,2013-07-07 12:55:00,
2013-07-07 08:59:00,79.7,69.1,30.07,SSW,200,0.0,3.1,70,0.00,,,0.00,VWS V14.01,2013-07-07 12:59:00,
2013-07-07 09:00:00,79.7,69.1,30.07,SSW,200,0.0,3.1,70,0.00,,,0.00,VWS V14.01,2013-07-07 13:00:00,
2013-07-07 09:04:00,80.2,70.0,30.07,West,276,0.0,3.1,71,0.00,,,0.00,VWS V14.01,2013-07-07 13:04:00,
2013-07-07 09:05:00,80.2,70.0,30.07,West,276,0.0,3.1,71,0.00,,,0.00,VWS V14.01,2013-07-07 13:05:00,
2013-07-07 09:09:00,80.2,70.0,30.07,South,182,0.0,4.0,71,0.00,,,0.00,VWS V14.01,2013-07-07 13:09:00,
2013-07-07 09:10:00,80.1,69.8,30.07,South,182,0.0,4.0,71,0.00,,,0.00,VWS V14.01,2013-07-07 13:10:00,
2013-07-07 09:14:00,79.9,69.6,30.07,WSW,252,0.0,5.4,71,0.00,,,0.00,VWS V14.01,2013-07-07 13:14:00,
2013-07-07 09:15:00,79.9,69.6,30.07,WSW,252,0.0,5.4,71,0.00,,,0.00,VWS V14.01,2013-07-07 13:15:00,
2013-07-07 09:19:00,79.9,69.6,30.07,West,280,6.3,7.6,71,0.00,,,0.00,VWS V14.01,2013-07-07 13:19:00,
2013-07-07 09:20:00,79.9,69.6,30.07,West,275,4.0,7.6,71,0.00,,,0.00,VWS V14.01,2013-07-07 13:20:00,
2013-07-07 09:24:00,79.5,69.3,30.07,West,275,3.1,7.6,71,0.00,,,0.00,VWS V14.01,2013-07-07 13:24:00,
2013-07-07 09:25:00,79.5,69.3,30.07,West,275,3.1,7.6,71,0.00,,,0.00,VWS V14.01,2013-07-07 13:25:00,
2013-07-07 09:29:00,79.7,69.5,30.07,West,271,4.0,4.0,71,0.00,,,0.00,VWS V14.01,2013-07-07 13:29:00,
2013-07-07 09:30:00,79.7,69.5,30.07,West,271,0.0,4.0,71,0.00,,,0.00,VWS V14.01,2013-07-07 13:30:00,
2013-07-07 09:34:00,79.7,69.9,30.07,West,272,0.0,3.1,72,0.00,,,0.00,VWS V14.01,2013-07-07 13:34:00,
2013-07-07 09:35:00,79.7,69.9,30.07,West,272,0.0,3.1,72,0.00,,,0.00,VWS V14.01,2013-07-07 13:35:00,
2013-07-07 09:40:00,80.1,70.2,30.07,SSW,196,2.7,3.6,72,0.00,,,0.00,VWS V14.01,2013-07-07 13:40:00,
2013-07-07 09:45:00,80.2,70.4,30.07,West,273,3.6,3.6,72,0.00,,,0.00,VWS V14.01,2013-07-07 13:45:00,
2013-07-07 09:50:00,80.2,70.4,30.07,SW,233,0.0,5.8,72,0.00,,,0.00,VWS V14.01,2013-07-07 13:50:00,
2013-07-07 09:55:00,80.4,70.6,30.07,SW,233,0.0,0.0,72,0.00,,,0.00,VWS V14.01,2013-07-07 13:55:00,
2013-07-07 10:00:00,80.4,70.6,30.04,West,276,2.2,2.2,72,0.00,,,0.00,VWS V14.01,2013-07-07 14:00:00,
2013-07-07 10:05:00,80.6,69.9,30.04,SW,228,0.0,3.6,70,0.00,,,0.00,VWS V14.01,2013-07-07 14:05:00,
2013-07-07 10:10:00,80.6,69.9,30.04,West,265,3.6,5.4,70,0.00,,,0.00,VWS V14.01,2013-07-07 14:10:00,
2013-07-07 10:15:00,80.6,69.9,30.04,West,262,0.0,0.0,70,0.00,,,0.00,VWS V14.01,2013-07-07 14:15:00,
2013-07-07 10:20:00,81.1,70.4,30.04,SW,216,0.0,0.0,70,0.00,,,0.00,VWS V14.01,2013-07-07 14:20:00,
2013-07-07 10:25:00,81.5,70.4,30.04,South,187,2.2,2.2,69,0.00,,,0.00,VWS V14.01,2013-07-07 14:25:00,
2013-07-07 10:30:00,81.9,70.7,30.04,West,265,0.0,0.0,69,0.00,,,0.00,VWS V14.01,2013-07-07 14:30:00,
2013-07-07 10:35:00,82.0,70.4,30.04,WSW,247,0.0,0.0,68,0.00,,,0.00,VWS V14.01,2013-07-07 14:35:00,
2013-07-07 10:40:00,82.6,70.5,30.04,SSE,168,0.0,2.2,67,0.00,,,0.00,VWS V14.01,2013-07-07 14:40:00,
2013-07-07 10:45:00,82.9,70.4,30.04,WSW,238,0.0,0.0,66,0.00,,,0.00,VWS V14.01,2013-07-07 14:45:00,
2013-07-07 10:50:00,83.3,70.8,30.04,West,265,5.8,5.8,66,0.00,,,0.00,VWS V14.01,2013-07-07 14:50:00,
2013-07-07 10:55:00,83.5,70.0,30.04,West,272,4.0,4.0,64,0.00,,,0.00,VWS V14.01,2013-07-07 14:55:00,
2013-07-07 11:00:00,83.8,70.4,30.04,SSW,210,2.7,2.7,64,0.00,,,0.00,VWS V14.01,2013-07-07 15:00:00,
2013-07-07 11:05:00,84.0,70.5,30.04,WSW,258,0.0,2.2,64,0.00,,,0.00,VWS V14.01,2013-07-07 15:05:00,
2013-07-07 11:10:00,84.2,70.2,30.04,SSE,167,0.0,0.0,63,0.00,,,0.00,VWS V14.01,2013-07-07 15:10:00,
2013-07-07 11:15:00,84.2,69.8,30.04,SSE,168,0.0,0.0,62,0.00,,,0.00,VWS V14.01,2013-07-07 15:15:00,
2013-07-07 11:20:00,84.2,69.8,30.04,WSW,246,2.7,4.0,62,0.00,,,0.00,VWS V14.01,2013-07-07 15:20:00,
2013-07-07 11:25:00,84.4,69.9,30.04,WSW,253,0.0,0.0,62,0.00,,,0.00,VWS V14.01,2013-07-07 15:25:00,
2013-07-07 11:30:00,84.7,70.8,30.04,South,179,0.0,3.1,63,0.00,,,0.00,VWS V14.01,2013-07-07 15:30:00,
2013-07-07 11:35:00,84.7,69.8,30.04,West,266,0.0,0.0,61,0.00,,,0.00,VWS V14.01,2013-07-07 15:35:00,
2013-07-07 11:40:00,84.9,70.5,30.04,West,269,0.0,0.0,62,0.00,,,0.00,VWS V14.01,2013-07-07 15:40:00,
2013-07-07 11:45:00,85.1,69.7,30.04,West,269,4.9,5.4,60,0.00,,,0.00,VWS V14.01,2013-07-07 15:45:00,
2013-07-07 11:50:00,85.3,69.8,30.04,WSW,257,0.0,0.0,60,0.00,,,0.00,VWS V14.01,2013-07-07 15:50:00,
2013-07-07 11:55:00,85.5,70.0,30.04,West,275,0.0,4.0,60,0.00,,,0.00,VWS V14.01,2013-07-07 15:55:00,
2013-07-07 12:00:00,85.6,70.2,30.04,West,275,2.2,2.2,60,0.00,,,0.00,VWS V14.01,2013-07-07 16:00:00,
2013-07-07 12:05:00,86.2,70.7,30.04,West,276,0.0,0.0,60,0.00,,,0.00,VWS V14.01,2013-07-07 16:05:00,
2013-07-07 12:10:00,86.7,71.2,30.04,WNW,286,0.0,0.0,60,0.00,,,0.00,VWS V14.01,2013-07-07 16:10:00,
2013-07-07 12:15:00,87.1,71.5,30.04,West,272,0.0,0.0,60,0.00,,,0.00,VWS V14.01,2013-07-07 16:15:00,
2013-07-07 12:20:00,87.1,70.5,30.04,West,261,2.2,4.0,58,0.00,,,0.00,VWS V14.01,2013-07-07 16:20:00,
2013-07-07 12:25:00,87.1,70.5,30.04,West,273,0.0,2.2,58,0.00,,,0.00,VWS V14.01,2013-07-07 16:25:00,
2013-07-07 12:30:00,87.6,71.0,30.04,WSW,247,0.0,3.1,58,0.00,,,0.00,VWS V14.01,2013-07-07 16:30:00,
2013-07-07 12:35:00,88.0,70.3,30.04,West,265,0.0,2.2,56,0.00,,,0.00,VWS V14.01,2013-07-07 16:35:00,
2013-07-07 12:40:00,88.5,70.8,30.04,West,270,3.1,3.6,56,0.00,,,0.00,VWS V14.01,2013-07-07 16:40:00,
2013-07-07 12:45:00,88.7,70.5,30.04,West,265,3.1,3.1,55,0.00,,,0.00,VWS V14.01,2013-07-07 16:45:00,
2013-07-07 12:50:00,89.1,70.3,30.04,WNW,285,5.4,8.7,54,0.00,,,0.00,VWS V14.01,2013-07-07 16:50:00,
2013-07-07 12:55:00,88.5,69.8,30.04,West,273,5.8,5.8,54,0.00,,,0.00,VWS V14.01,2013-07-07 16:55:00,
2013-07-07 13:00:00,89.1,69.2,30.04,WNW,286,2.7,8.1,52,0.00,,,0.00,VWS V14.01,2013-07-07 17:00:00,
2013-07-07 13:05:00,89.4,68.9,30.04,West,274,0.0,3.1,51,0.00,,,0.00,VWS V14.01,2013-07-07 17:05:00,
2013-07-07 13:10:00,90.0,68.8,30.04,WSW,244,2.2,3.6,50,0.00,,,0.00,VWS V14.01,2013-07-07 17:10:00,
2013-07-07 13:15:00,90.5,68.8,30.04,SW,216,7.6,7.6,49,0.00,,,0.00,VWS V14.01,2013-07-07 17:15:00,
2013-07-07 13:20:00,90.7,67.7,30.04,WNW,291,3.6,6.3,47,0.00,,,0.00,VWS V14.01,2013-07-07 17:20:00,
2013-07-07 13:25:00,91.2,68.2,30.01,WSW,254,5.8,5.8,47,0.00,,,0.00,VWS V14.01,2013-07-07 17:25:00,
2013-07-07 13:30:00,92.1,68.4,30.01,West,260,3.1,3.1,46,0.00,,,0.00,VWS V14.01,2013-07-07 17:30:00,
2013-07-07 13:35:00,92.8,68.4,30.01,West,273,0.0,5.4,45,0.00,,,0.00,VWS V14.01,2013-07-07 17:35:00,
2013-07-07 13:36:00,93.0,68.6,30.01,South,173,3.6,4.0,45,0.00,,,0.00,VWS V14.01,2013-07-07 17:36:00,
2013-07-07 13:40:00,94.3,69.7,30.01,West,276,6.3,6.3,45,0.00,,,0.00,VWS V14.01,2013-07-07 17:40:00,
2013-07-07 13:45:00,93.7,68.6,30.01,SW,235,3.1,8.1,44,0.00,,,0.00,VWS V14.01,2013-07-07 17:45:00,
2013-07-07 13:46:00,93.9,68.7,30.01,WSW,244,0.0,3.1,44,0.00,,,0.00,VWS V14.01,2013-07-07 17:46:00,
2013-07-07 13:50:00,94.3,68.4,30.01,South,191,3.1,6.3,43,0.00,,,0.00,VWS V14.01,2013-07-07 17:50:00,
2013-07-07 13:51:00,94.5,67.8,30.01,WSW,247,4.0,4.0,42,0.00,,,0.00,VWS V14.01,2013-07-07 17:51:00,
2013-07-07 13:55:00,94.8,68.8,30.01,SSE,156,3.6,4.0,43,0.00,,,0.00,VWS V14.01,2013-07-07 17:55:00,
2013-07-07 13:56:00,95.0,68.3,30.01,South,183,5.8,5.8,42,0.00,,,0.00,VWS V14.01,2013-07-07 17:56:00,
2013-07-07 14:00:00,93.9,68.0,30.01,West,265,3.6,6.3,43,0.00,,,0.00,VWS V14.01,2013-07-07 18:00:00,
2013-07-07 14:01:00,93.7,68.6,30.01,West,259,5.8,6.3,44,0.00,,,0.00,VWS V14.01,2013-07-07 18:01:00,
2013-07-07 14:05:00,93.7,69.2,30.01,WNW,302,3.6,6.3,45,0.00,,,0.00,VWS V14.01,2013-07-07 18:05:00,
2013-07-07 14:06:00,93.6,69.0,30.01,SSW,196,3.1,5.8,45,0.00,,,0.00,VWS V14.01,2013-07-07 18:06:00,
2013-07-07 14:10:00,93.4,68.9,30.01,SSE,164,5.4,5.8,45,0.00,,,0.00,VWS V14.01,2013-07-07 18:10:00,
2013-07-07 14:11:00,93.2,68.7,30.01,South,170,4.0,5.4,45,0.00,,,0.00,VWS V14.01,2013-07-07 18:11:00,
2013-07-07 14:15:00,92.8,69.0,30.01,West,268,2.7,7.6,46,0.00,,,0.00,VWS V14.01,2013-07-07 18:15:00,
2013-07-07 14:16:00,92.3,68.5,30.01,WNW,284,6.3,6.3,46,0.00,,,0.00,VWS V14.01,2013-07-07 18:16:00,
2013-07-07 14:20:00,92.5,69.3,30.01,SSW,211,3.1,6.3,47,0.00,,,0.00,VWS V14.01,2013-07-07 18:20:00,
2013-07-07 14:21:00,92.5,69.3,30.01,SW,228,0.0,4.0,47,0.00,,,0.00,VWS V14.01,2013-07-07 18:21:00,
2013-07-07 14:25:00,92.5,68.7,30.01,SW,214,2.7,7.2,46,0.00,,,0.00,VWS V14.01,2013-07-07 18:25:00,
2013-07-07 14:26:00,92.5,68.7,30.01,WNW,303,5.4,5.4,46,0.00,,,0.00,VWS V14.01,2013-07-07 18:26:00,
2013-07-07 14:30:00,92.5,68.1,30.01,SSW,198,2.2,6.3,45,0.00,,,0.00,VWS V14.01,2013-07-07 18:30:00,
2013-07-07 14:31:00,92.5,68.1,30.01,SSE,159,3.6,4.9,45,0.00,,,0.00,VWS V14.01,2013-07-07 18:31:00,
2013-07-07 14:35:00,92.5,68.7,30.01,SSW,203,2.7,6.7,46,0.00,,,0.00,VWS V14.01,2013-07-07 18:35:00,
2013-07-07 14:36:00,92.5,68.7,30.01,SW,230,2.7,3.6,46,0.00,,,0.00,VWS V14.01,2013-07-07 18:36:00,
2013-07-07 14:40:00,92.5,68.1,30.01,West,267,2.7,6.3,45,0.00,,,0.00,VWS V14.01,2013-07-07 18:40:00,
2013-07-07 14:41:00,92.5,68.1,29.98,South,172,4.0,4.0,45,0.00,,,0.00,VWS V14.01,2013-07-07 18:41:00,
2013-07-07 14:45:00,92.8,69.0,29.98,SW,223,3.6,4.9,46,0.00,,,0.00,VWS V14.01,2013-07-07 18:45:00,
2013-07-07 14:46:00,92.8,68.4,29.98,WNW,301,2.7,8.3,45,0.00,,,0.00,VWS V14.01,2013-07-07 18:46:00,
2013-07-07 14:50:00,92.8,68.4,29.98,WSW,246,3.6,8.3,45,0.00,,,0.00,VWS V14.01,2013-07-07 18:50:00,
2013-07-07 14:51:00,93.0,68.6,29.98,West,268,0.0,3.6,45,0.00,,,0.00,VWS V14.01,2013-07-07 18:51:00,
2013-07-07 14:55:00,92.8,68.4,29.98,West,266,5.4,6.3,45,0.00,,,0.00,VWS V14.01,2013-07-07 18:55:00,
2013-07-07 14:56:00,92.3,67.2,29.98,SW,224,4.0,8.1,44,0.00,,,0.00,VWS V14.01,2013-07-07 18:56:00,
2013-07-07 15:00:00,92.7,68.9,29.98,WSW,251,3.6,8.1,46,0.00,,,0.00,VWS V14.01,2013-07-07 19:00:00,
2013-07-07 15:01:00,92.7,68.9,29.98,NNW,333,5.8,5.8,46,0.00,,,0.00,VWS V14.01,2013-07-07 19:01:00,
2013-07-07 15:05:00,92.7,68.9,29.98,WSW,257,0.0,5.8,46,0.00,,,0.00,VWS V14.01,2013-07-07 19:05:00,
2013-07-07 15:06:00,93.4,68.2,29.98,WSW,254,2.7,5.8,44,0.00,,,0.00,VWS V14.01,2013-07-07 19:06:00,
2013-07-07 15:10:00,93.7,68.6,29.98,SW,236,0.0,5.8,44,0.00,,,0.00,VWS V14.01,2013-07-07 19:10:00,
2013-07-07 15:11:00,93.7,68.6,29.98,WNW,294,3.1,3.1,44,0.00,,,0.00,VWS V14.01,2013-07-07 19:11:00,
2013-07-07 15:15:00,94.3,69.0,29.98,WNW,298,4.0,6.3,44,0.00,,,0.00,VWS V14.01,2013-07-07 19:15:00,
2013-07-07 15:16:00,94.3,69.0,29.98,SSW,193,2.7,4.0,44,0.00,,,0.00,VWS V14.01,2013-07-07 19:16:00,
2013-07-07 15:20:00,94.3,69.0,29.98,SSW,213,2.2,4.0,44,0.00,,,0.00,VWS V14.01,2013-07-07 19:20:00,
2013-07-07 15:21:00,93.9,68.7,29.98,WNW,294,2.7,5.8,44,0.00,,,0.00,VWS V14.01,2013-07-07 19:21:00,
2013-07-07 15:25:00,93.7,68.6,29.98,WNW,299,2.7,5.8,44,0.00,,,0.00,VWS V14.01,2013-07-07 19:25:00,
2013-07-07 15:26:00,93.7,68.6,29.98,WSW,253,5.8,5.8,44,0.00,,,0.00,VWS V14.01,2013-07-07 19:26:00,
2013-07-07 15:30:00,92.7,66.9,29.98,South,184,2.7,9.6,43,0.00,,,0.00,VWS V14.01,2013-07-07 19:30:00,
2013-07-07 15:31:00,92.7,66.9,29.98,WNW,290,3.1,4.0,43,0.00,,,0.00,VWS V14.01,2013-07-07 19:31:00,
2013-07-07 15:35:00,93.2,68.7,29.98,West,259,0.0,7.2,45,0.00,,,0.00,VWS V14.01,2013-07-07 19:35:00,
2013-07-07 15:36:00,93.2,68.7,29.98,SSW,207,2.7,3.6,45,0.00,,,0.00,VWS V14.01,2013-07-07 19:36:00,
2013-07-07 15:40:00,93.2,68.7,29.98,SSE,159,2.7,4.0,45,0.00,,,0.00,VWS V14.01,2013-07-07 19:40:00,
2013-07-07 15:41:00,93.2,68.7,29.98,SW,233,0.0,4.0,45,0.00,,,0.00,VWS V14.01,2013-07-07 19:41:00,
2013-07-07 15:45:00,93.4,68.2,29.98,WNW,293,5.8,7.6,44,0.00,,,0.00,VWS V14.01,2013-07-07 19:45:00,
2013-07-07 15:46:00,92.7,66.9,29.98,West,272,3.1,5.8,43,0.00,,,0.00,VWS V14.01,2013-07-07 19:46:00,
2013-07-07 15:50:00,92.7,66.9,29.98,WSW,252,3.1,5.8,43,0.00,,,0.00,VWS V14.01,2013-07-07 19:50:00,
2013-07-07 15:51:00,92.7,66.9,29.98,SSW,196,2.2,3.1,43,0.00,,,0.00,VWS V14.01,2013-07-07 19:51:00,
2013-07-07 15:55:00,92.7,66.9,29.98,West,274,5.4,5.4,43,0.00,,,0.00,VWS V14.01,2013-07-07 19:55:00,
2013-07-07 15:56:00,92.7,66.9,29.98,West,277,2.7,7.6,43,0.00,,,0.00,VWS V14.01,2013-07-07 19:56:00,
2013-07-07 16:00:00,92.7,66.9,29.98,WSW,253,2.7,7.6,43,0.00,,,0.00,VWS V14.01,2013-07-07 20:00:00,
2013-07-07 16:05:00,92.7,68.9,29.98,WSW,257,0.0,5.8,46,0.00,,,0.00,VWS V14.01,2013-07-07 20:05:00,
2013-07-07 16:10:00,93.7,68.6,29.98,SW,236,0.0,5.8,44,0.00,,,0.00,VWS V14.01,2013-07-07 20:10:00,
2013-07-07 16:15:00,94.3,69.0,29.98,WNW,298,4.0,6.3,44,0.00,,,0.00,VWS V14.01,2013-07-07 20:15:00,
2013-07-07 16:19:00,92.1,68.4,29.98,WSW,257,4.9,4.9,46,0.00,,,0.00,VWS V14.01,2013-07-07 20:19:00,
2013-07-07 16:20:00,92.1,68.4,29.98,WSW,257,4.9,4.9,46,0.00,,,0.00,VWS V14.01,2013-07-07 20:20:00,
2013-07-07 16:24:00,92.1,68.4,29.98,West,270,10.1,10.1,46,0.00,,,0.00,VWS V14.01,2013-07-07 20:24:00,
2013-07-07 16:25:00,92.1,68.4,29.98,West,272,6.3,11.9,46,0.00,,,0.00,VWS V14.01,2013-07-07 20:25:00,
2013-07-07 16:29:00,91.2,68.2,29.98,WNW,291,0.0,4.0,47,0.00,,,0.00,VWS V14.01,2013-07-07 20:29:00,
2013-07-07 16:30:00,91.2,68.2,29.98,SW,222,3.1,10.1,47,0.00,,,0.00,VWS V14.01,2013-07-07 20:30:00,
2013-07-07 16:35:00,93.2,68.7,29.98,West,259,0.0,7.2,45,0.00,,,0.00,VWS V14.01,2013-07-07 20:35:00,
2013-07-07 16:40:00,93.2,68.7,29.98,SSE,159,2.7,4.0,45,0.00,,,0.00,VWS V14.01,2013-07-07 20:40:00,
2013-07-07 16:45:00,93.4,68.2,29.98,WNW,293,5.8,7.6,44,0.00,,,0.00,VWS V14.01,2013-07-07 20:45:00,
2013-07-07 16:50:00,92.7,66.9,29.98,WSW,252,3.1,5.8,43,0.00,,,0.00,VWS V14.01,2013-07-07 20:50:00,
2013-07-07 16:55:00,92.7,66.9,29.98,West,274,5.4,5.4,43,0.00,,,0.00,VWS V14.01,2013-07-07 20:55:00,
2013-07-07 17:00:00,92.7,66.9,29.98,WSW,253,2.7,7.6,43,0.00,,,0.00,VWS V14.01,2013-07-07 21:00:00,
2013-07-07 17:20:00,92.1,68.4,29.98,WSW,257,4.9,4.9,46,0.00,,,0.00,VWS V14.01,2013-07-07 21:20:00,
2013-07-07 17:25:00,92.1,68.4,29.98,West,272,6.3,11.9,46,0.00,,,0.00,VWS V14.01,2013-07-07 21:25:00,
2013-07-07 17:30:00,91.2,68.2,29.98,SW,222,3.1,10.1,47,0.00,,,0.00,VWS V14.01,2013-07-07 21:30:00,
2013-07-07 19:13:00,85.6,68.7,29.98,West,266,0.0,0.0,57,0.00,,,0.00,VWS V14.01,2013-07-07 23:13:00,
2013-07-07 19:15:00,85.6,68.7,29.98,West,266,0.0,0.0,57,0.00,,,0.00,VWS V14.01,2013-07-07 23:15:00,
2013-07-07 19:18:00,85.6,68.7,29.98,WSW,256,0.0,3.6,57,0.00,,,0.00,VWS V14.01,2013-07-07 23:18:00,
2013-07-07 19:20:00,85.3,68.8,29.98,WSW,255,2.2,4.0,58,0.00,,,0.00,VWS V14.01,2013-07-07 23:20:00,
2013-07-07 19:23:00,85.3,68.8,29.98,WSW,255,2.2,2.2,58,0.00,,,0.00,VWS V14.01,2013-07-07 23:23:00,
2013-07-07 19:25:00,85.1,68.7,29.98,WSW,245,0.0,4.9,58,0.00,,,0.00,VWS V14.01,2013-07-07 23:25:00,
2013-07-07 19:28:00,84.7,68.8,29.98,WSW,245,2.7,2.7,59,0.00,,,0.00,VWS V14.01,2013-07-07 23:28:00,
2013-07-07 19:30:00,84.7,68.8,29.98,WNW,282,3.6,3.6,59,0.00,,,0.00,VWS V14.01,2013-07-07 23:30:00,
2013-07-07 19:33:00,84.7,68.8,29.98,SW,233,5.4,5.8,59,0.00,,,0.00,VWS V14.01,2013-07-07 23:33:00,
2013-07-07 19:35:00,84.6,68.7,29.98,West,273,3.1,5.8,59,0.00,,,0.00,VWS V14.01,2013-07-07 23:35:00,
2013-07-07 19:38:00,84.4,68.5,29.98,WNW,292,0.0,5.4,59,0.00,,,0.00,VWS V14.01,2013-07-07 23:38:00,
2013-07-07 19:40:00,84.4,68.5,29.98,WNW,292,0.0,5.4,59,0.00,,,0.00,VWS V14.01,2013-07-07 23:40:00,
2013-07-07 19:43:00,84.2,68.3,29.98,West,279,0.0,4.9,59,0.00,,,0.00,VWS V14.01,2013-07-07 23:43:00,
2013-07-07 19:45:00,84.2,68.3,29.98,West,279,0.0,4.9,59,0.00,,,0.00,VWS V14.01,2013-07-07 23:45:00,
2013-07-07 19:48:00,83.8,68.5,29.98,West,279,0.0,0.0,60,0.00,,,0.00,VWS V14.01,2013-07-07 23:48:00,
2013-07-07 19:50:00,83.8,68.5,29.98,West,279,0.0,2.2,60,0.00,,,0.00,VWS V14.01,2013-07-07 23:50:00,
2013-07-07 19:53:00,83.7,66.8,29.98,South,184,4.0,6.7,57,0.00,,,0.00,VWS V14.01,2013-07-07 23:53:00,
2013-07-07 19:55:00,83.5,66.2,29.98,West,278,5.8,8.1,56,0.00,,,0.00,VWS V14.01,2013-07-07 23:55:00,
2013-07-07 19:59:00,81.9,65.7,30.01,SSW,203,3.1,6.3,58,0.00,,,0.00,VWS V14.01,2013-07-07 23:59:00,
2013-07-07 20:00:00,81.3,65.1,30.01,SSW,205,0.0,6.3,58,0.04,,,0.04,VWS V14.01,2013-07-08 00:00:00,
2013-07-07 20:04:00,77.5,64.4,30.01,SW,230,0.0,5.4,64,0.16,,,0.16,VWS V14.01,2013-07-08 00:04:00,
2013-07-07 20:05:00,77.0,64.3,30.01,SW,230,0.0,5.4,65,0.16,,,0.16,VWS V14.01,2013-07-08 00:05:00,
2013-07-07 20:09:00,75.2,64.8,30.01,SW,230,0.0,0.0,70,0.20,,,0.20,VWS V14.01,2013-07-08 00:09:00,
2013-07-07 20:10:00,75.0,65.0,30.01,SW,230,0.0,0.0,71,0.20,,,0.20,VWS V14.01,2013-07-08 00:10:00,
2013-07-07 20:14:00,74.7,64.6,30.01,SW,230,0.0,0.0,71,0.20,,,0.20,VWS V14.01,2013-07-08 00:14:00,
2013-07-07 20:15:00,74.7,65.0,30.01,SW,230,0.0,0.0,72,0.20,,,0.20,VWS V14.01,2013-07-08 00:15:00,
2013-07-07 20:19:00,75.0,65.4,30.01,SW,230,0.0,0.0,72,0.20,,,0.20,VWS V14.01,2013-07-08 00:19:00,
2013-07-07 20:20:00,75.0,65.4,30.01,SW,230,0.0,0.0,72,0.20,,,0.20,VWS V14.01,2013-07-08 00:20:00,
2013-07-07 20:24:00,75.0,66.2,30.01,SW,230,0.0,0.0,74,0.20,,,0.20,VWS V14.01,2013-07-08 00:24:00,
2013-07-07 20:25:00,75.0,66.2,30.01,SW,230,0.0,0.0,74,0.20,,,0.20,VWS V14.01,2013-07-08 00:25:00,
2013-07-07 20:29:00,74.8,66.4,30.01,SW,230,0.0,2.2,75,0.20,,,0.20,VWS V14.01,2013-07-08 00:29:00,
2013-07-07 20:30:00,74.8,66.4,30.01,SW,230,0.0,2.2,75,0.20,,,0.20,VWS V14.01,2013-07-08 00:30:00,
2013-07-07 20:34:00,74.7,66.6,30.01,SW,230,0.0,2.7,76,0.20,,,0.20,VWS V14.01,2013-07-08 00:34:00,
2013-07-07 20:35:00,74.7,66.6,30.01,SW,230,0.0,2.7,76,0.20,,,0.20,VWS V14.01,2013-07-08 00:35:00,
2013-07-07 20:39:00,74.7,67.0,30.01,SW,230,0.0,0.0,77,0.20,,,0.20,VWS V14.01,2013-07-08 00:39:00,
2013-07-07 20:40:00,74.5,66.8,30.01,SW,230,0.0,0.0,77,0.20,,,0.20,VWS V14.01,2013-07-08 00:40:00,
2013-07-07 20:44:00,74.3,67.0,30.01,South,188,3.6,4.0,78,0.20,,,0.20,VWS V14.01,2013-07-08 00:44:00,
2013-07-07 20:45:00,74.3,67.0,30.01,South,177,4.0,4.5,78,0.20,,,0.20,VWS V14.01,2013-07-08 00:45:00,
2013-07-07 20:49:00,74.1,66.8,30.01,South,177,0.0,4.0,78,0.20,,,0.20,VWS V14.01,2013-07-08 00:49:00,
2013-07-07 20:50:00,73.8,66.5,30.01,South,177,0.0,4.0,78,0.20,,,0.20,VWS V14.01,2013-07-08 00:50:00,
2013-07-07 20:54:00,73.4,66.5,30.01,South,177,0.0,0.0,79,0.20,,,0.20,VWS V14.01,2013-07-08 00:54:00,
2013-07-07 20:55:00,73.4,66.5,30.01,South,177,0.0,0.0,79,0.20,,,0.20,VWS V14.01,2013-07-08 00:55:00,
2013-07-07 20:59:00,73.4,66.5,29.98,South,177,0.0,0.0,79,0.20,,,0.20,VWS V14.01,2013-07-08 00:59:00,
2013-07-07 21:00:00,73.4,66.9,29.98,South,177,0.0,0.0,80,0.20,,,0.20,VWS V14.01,2013-07-08 01:00:00,
2013-07-07 21:04:00,73.2,66.7,29.98,South,177,0.0,0.0,80,0.16,,,0.20,VWS V14.01,2013-07-08 01:04:00,
2013-07-07 21:05:00,73.2,67.1,29.98,South,177,0.0,2.2,81,0.16,,,0.20,VWS V14.01,2013-07-08 01:05:00,
2013-07-07 21:09:00,73.2,67.1,29.98,South,177,0.0,0.0,81,0.04,,,0.20,VWS V14.01,2013-07-08 01:09:00,
2013-07-07 21:10:00,73.0,66.9,29.98,South,177,0.0,0.0,81,0.04,,,0.20,VWS V14.01,2013-07-08 01:10:00,
2013-07-07 21:14:00,72.9,67.1,29.98,West,266,0.0,4.0,82,0.00,,,0.20,VWS V14.01,2013-07-08 01:14:00,
2013-07-07 21:15:00,72.9,67.1,29.98,West,266,0.0,4.0,82,0.00,,,0.20,VWS V14.01,2013-07-08 01:15:00,
2013-07-07 21:19:00,72.9,67.1,29.98,West,266,0.0,0.0,82,0.00,,,0.20,VWS V14.01,2013-07-08 01:19:00,
2013-07-07 21:20:00,72.9,67.1,29.98,West,266,0.0,0.0,82,0.00,,,0.20,VWS V14.01,2013-07-08 01:20:00,
2013-07-07 21:24:00,72.9,67.1,29.98,West,266,0.0,0.0,82,0.00,,,0.20,VWS V14.01,2013-07-08 01:24:00,
2013-07-07 21:25:00,72.9,67.1,29.98,West,266,0.0,0.0,82,0.00,,,0.20,VWS V14.01,2013-07-08 01:25:00,
2013-07-07 21:29:00,72.7,67.2,29.98,West,266,0.0,0.0,83,0.00,,,0.20,VWS V14.01,2013-07-08 01:29:00,
2013-07-07 21:30:00,72.7,67.2,29.98,West,266,0.0,0.0,83,0.00,,,0.20,VWS V14.01,2013-07-08 01:30:00,
2013-07-07 21:34:00,72.5,67.1,29.98,West,268,2.2,2.7,83,0.00,,,0.20,VWS V14.01,2013-07-08 01:34:00,
2013-07-07 21:35:00,72.5,67.1,29.98,West,278,3.6,3.6,83,0.00,,,0.20,VWS V14.01,2013-07-08 01:35:00,
2013-07-07 21:39:00,72.5,67.1,29.98,WSW,246,0.0,4.0,83,0.00,,,0.20,VWS V14.01,2013-07-08 01:39:00,
2013-07-07 21:40:00,72.5,67.1,29.98,WSW,246,0.0,4.0,83,0.00,,,0.20,VWS V14.01,2013-07-08 01:40:00,
2013-07-07 21:44:00,72.3,66.9,29.98,WSW,246,0.0,0.0,83,0.00,,,0.20,VWS V14.01,2013-07-08 01:44:00,
2013-07-07 21:45:00,72.3,66.9,29.98,WSW,246,0.0,0.0,83,0.00,,,0.20,VWS V14.01,2013-07-08 01:45:00,
2013-07-07 21:49:00,72.1,66.7,29.98,West,264,0.0,3.6,83,0.00,,,0.20,VWS V14.01,2013-07-08 01:49:00,
2013-07-07 21:50:00,72.1,66.7,29.98,West,264,0.0,3.6,83,0.00,,,0.20,VWS V14.01,2013-07-08 01:50:00,
2013-07-07 21:54:00,72.0,66.5,29.98,West,264,0.0,0.0,83,0.00,,,0.20,VWS V14.01,2013-07-08 01:54:00,
2013-07-07 21:55:00,72.0,66.5,29.98,West,264,0.0,0.0,83,0.00,,,0.20,VWS V14.01,2013-07-08 01:55:00,
2013-07-07 21:59:00,72.0,66.5,29.98,WSW,237,0.0,4.9,83,0.00,,,0.20,VWS V14.01,2013-07-08 01:59:00,
2013-07-07 22:00:00,72.0,66.5,29.98,WSW,237,0.0,4.9,83,0.00,,,0.20,VWS V14.01,2013-07-08 02:00:00,
2013-07-07 22:04:00,71.8,66.0,29.98,West,260,2.2,4.9,82,0.00,,,0.20,VWS V14.01,2013-07-08 02:04:00,
2013-07-07 22:05:00,71.8,66.0,29.98,West,260,2.2,4.9,82,0.00,,,0.20,VWS V14.01,2013-07-08 02:05:00,
2013-07-07 22:09:00,71.6,65.8,29.98,West,260,0.0,5.4,82,0.00,,,0.20,VWS V14.01,2013-07-08 02:09:00,
2013-07-07 22:10:00,71.6,65.8,29.98,West,260,0.0,5.4,82,0.00,,,0.20,VWS V14.01,2013-07-08 02:10:00,
2013-07-07 22:14:00,71.6,65.8,29.98,SW,225,0.0,4.5,82,0.00,,,0.20,VWS V14.01,2013-07-08 02:14:00,
2013-07-07 22:15:00,71.6,65.8,29.98,SW,225,0.0,4.5,82,0.00,,,0.20,VWS V14.01,2013-07-08 02:15:00,
2013-07-07 22:19:00,71.4,66.0,29.98,West,268,2.2,4.0,83,0.00,,,0.20,VWS V14.01,2013-07-08 02:19:00,
2013-07-07 22:20:00,71.4,66.0,29.98,West,268,2.2,4.0,83,0.00,,,0.20,VWS V14.01,2013-07-08 02:20:00,
2013-07-07 22:24:00,71.4,65.6,29.98,WSW,251,0.0,4.9,82,0.00,,,0.20,VWS V14.01,2013-07-08 02:24:00,
2013-07-07 22:25:00,71.4,66.0,29.98,WSW,251,0.0,4.9,83,0.00,,,0.20,VWS V14.01,2013-07-08 02:25:00,
2013-07-07 22:29:00,71.2,65.8,29.98,WSW,247,2.7,4.0,83,0.00,,,0.20,VWS V14.01,2013-07-08 02:29:00,
2013-07-07 22:30:00,71.2,65.8,29.98,WSW,247,3.1,4.0,83,0.00,,,0.20,VWS V14.01,2013-07-08 02:30:00,
2013-07-07 22:34:00,71.2,65.8,29.98,WNW,285,3.6,8.1,83,0.00,,,0.20,VWS V14.01,2013-07-08 02:34:00,
2013-07-07 22:35:00,71.2,65.8,29.98,WNW,285,2.7,8.1,83,0.00,,,0.20,VWS V14.01,2013-07-08 02:35:00,
2013-07-07 22:39:00,71.1,65.6,29.98,WSW,249,0.0,5.4,83,0.00,,,0.20,VWS V14.01,2013-07-08 02:39:00,
2013-07-07 22:40:00,71.1,65.6,29.98,WSW,249,0.0,5.4,83,0.00,,,0.20,VWS V14.01,2013-07-08 02:40:00,
2013-07-07 22:44:00,71.1,65.6,30.01,WNW,286,0.0,4.5,83,0.00,,,0.20,VWS V14.01,2013-07-08 02:44:00,
2013-07-07 22:45:00,71.1,65.6,30.01,West,260,3.1,4.5,83,0.00,,,0.20,VWS V14.01,2013-07-08 02:45:00,
2013-07-07 22:49:00,71.1,65.6,30.01,SW,231,0.0,4.9,83,0.00,,,0.20,VWS V14.01,2013-07-08 02:49:00,
2013-07-07 22:50:00,71.1,65.6,30.01,SW,231,0.0,4.9,83,0.00,,,0.20,VWS V14.01,2013-07-08 02:50:00,
2013-07-07 22:54:00,70.9,65.8,30.01,SW,227,0.0,4.0,84,0.00,,,0.20,VWS V14.01,2013-07-08 02:54:00,
2013-07-07 22:55:00,70.9,65.8,30.01,SW,227,0.0,4.0,84,0.00,,,0.20,VWS V14.01,2013-07-08 02:55:00,
2013-07-07 22:59:00,70.9,65.8,29.98,WSW,246,5.4,6.7,84,0.00,,,0.20,VWS V14.01,2013-07-08 02:59:00,
2013-07-07 23:00:00,70.9,65.8,29.98,WSW,246,5.4,6.7,84,0.00,,,0.20,VWS V14.01,2013-07-08 03:00:00,
2013-07-07 23:04:00,70.9,65.8,29.98,WSW,251,2.7,5.4,84,0.00,,,0.20,VWS V14.01,2013-07-08 03:04:00,
2013-07-07 23:05:00,70.9,65.8,29.98,West,266,4.0,5.4,84,0.00,,,0.20,VWS V14.01,2013-07-08 03:05:00,
2013-07-07 23:09:00,70.9,65.8,29.98,West,266,2.7,4.0,84,0.00,,,0.20,VWS V14.01,2013-07-08 03:09:00,
2013-07-07 23:10:00,70.9,65.8,29.98,West,266,2.7,4.0,84,0.00,,,0.20,VWS V14.01,2013-07-08 03:10:00,
2013-07-07 23:15:00,70.9,65.8,30.01,WSW,250,0.0,4.9,84,0.00,,,0.20,VWS V14.01,2013-07-08 03:15:00,
2013-07-07 23:20:00,70.5,65.5,30.01,West,262,3.1,3.6,84,0.00,,,0.20,VWS V14.01,2013-07-08 03:20:00,
2013-07-07 23:25:00,70.5,65.5,30.01,West,260,2.2,4.0,84,0.00,,,0.20,VWS V14.01,2013-07-08 03:25:00,
2013-07-07 23:30:00,70.3,65.6,30.01,West,280,0.0,5.4,85,0.00,,,0.20,VWS V14.01,2013-07-08 03:30:00,
2013-07-07 23:35:00,70.3,65.6,30.01,West,278,2.2,4.9,85,0.00,,,0.20,VWS V14.01,2013-07-08 03:35:00,
2013-07-07 23:40:00,70.3,65.6,30.01,WNW,303,6.3,10.1,85,0.00,,,0.20,VWS V14.01,2013-07-08 03:40:00,
2013-07-07 23:45:00,70.3,65.6,30.01,West,272,3.6,6.3,85,0.00,,,0.20,VWS V14.01,2013-07-08 03:45:00,
2013-07-07 23:50:00,70.3,65.6,30.01,West,274,2.7,4.0,85,0.00,,,0.20,VWS V14.01,2013-07-08 03:50:00,
2013-07-07 23:55:00,70.3,65.6,30.01,West,274,0.0,2.7,85,0.00,,,0.20,VWS V14.01,2013-07-08 03:55:00,